Stations météo

réclame
Mon MeteoGroup
Bastia, France (7790): Température de l'air & dewpoint: 12.01.2020 14:00:00 - 18.01.2020 14:00:00 (CET)Bastia, France (7790): Température de l'air 5cm: 12.01.2020 14:00:00 - 18.01.2020 14:00:00 (CET)Bastia, France (7790): Température de l'air -20cm & Température de l'air -100cm: 12.01.2020 14:00:00 - 18.01.2020 14:00:00 (CET)Bastia, France (7790): Vitesse du vent & gusts: 12.01.2020 14:00:00 - 18.01.2020 14:00:00 (CET)Bastia, France (7790): Direction du vent: 12.01.2020 14:00:00 - 18.01.2020 14:00:00 (CET)Bastia, France (7790): reduced air pressure: 12.01.2020 14:00:00 - 18.01.2020 14:00:00 (CET)Bastia, France (7790): visibility: 12.01.2020 14:00:00 - 18.01.2020 14:00:00 (CET)Bastia, France (7790): Ensoleillement: 12.01.2020 14:00:00 - 18.01.2020 14:00:00 (CET)Bastia, France (7790): Quantités de précipitations: 12.01.2020 14:00:00 - 18.01.2020 14:00:00 (CET)
Date & Time tt [°C] td [°C] tt 5cm [°C] tt -20cm [°C] tt -100cm [°C] ff [km/h] ff [knt] fx [km/h] fx [knt] dd ppp [hPa] vv [km] sd [min] rr [mm]
18.01.2020 14:00:00 15,5 4,2 18,3 10,0 12,0 31 17 61 33 WNW 1020,4 50 60 0,0
18.01.2020 13:00:00 15,7 2,1 18,7 10,0 12,0 31 17 53 28 W 1020,8 60 60 0,0
18.01.2020 12:00:00 15,5 2,6 13,2 10,0 12,0 32 17 54 29 W 1021,4 60 60 0,0
18.01.2020 11:00:00 13,3 6,2 12,3 10,0 12,0 25 14 45 25 WNW 1022,2 56 16 0,0
18.01.2020 10:00:00 13,0 5,9 13,1 10,0 12,0 26 14 45 24 WNW 1022,0 60 58 0,0
18.01.2020 09:00:00 12,1 6,4 8,9 10,0 12,0 20 11 40 21 NNW 1021,7 56 49 0,0
18.01.2020 08:00:00 11,0 6,3 6,8 10,1 12,0 19 10 29 16 N 1021,2 60 0 0,0
18.01.2020 07:00:00 10,1 5,9 7,1 10,1 12,0 7 4 19 10 NW 1020,9 60 0 0,0
18.01.2020 06:00:00 9,0 6,4 5,6 10,1 12,0 12 7 19 10 NNW 1020,4 60 0 0,0
18.01.2020 05:00:00 7,1 5,6 2,7 10,1 12,0 9 5 16 9 S 1019,5 60 0 0,0
18.01.2020 04:00:00 7,7 6,2 2,7 10,2 12,0 14 7 17 9 WNW 1019,7 60 0 0,0
18.01.2020 03:00:00 8,4 6,0 4,0 10,2 12,0 11 6 21 12 SSW 1019,9 60 0 0,0
18.01.2020 02:00:00 8,4 6,2 5,0 10,2 12,0 5 3 21 11 WSW 1020,5 60 0 0,0
18.01.2020 01:00:00 9,5 7,9 5,6 10,2 12,0 5 3 16 8 SE 1020,7 39 0 0,0
18.01.2020 00:00:00 10,8 8,0 8,0 10,2 12,0 6 3 26 14 NW 1021,4 51 0 1,0
17.01.2020 23:00:00 8,7 7,3 3,3 10,2 12,0 12 7 17 9 WSW 1022,4 13 0 0,0
17.01.2020 22:00:00 7,0 6,1 3,5 10,1 12,0 5 3 13 7 SW 1022,6 19 0 0,0
17.01.2020 21:00:00 7,4 6,0 2,8 10,1 12,0 4 2 11 6 NW 1023,5 11 0 0,0
17.01.2020 20:00:00 8,0 6,9 3,3 10,1 12,0 5 3 12 6 S 1023,9 19 0 0,0
17.01.2020 19:00:00 7,9 6,7 2,9 10,0 12,0 7 4 11 6 SSW 1024,5 13 0 0,0
17.01.2020 18:00:00 9,8 8,2 5,2 9,9 12,0 6 4 8 4 SSW 1025,0 13 0 0,0
17.01.2020 17:00:00 12,3 8,6 8,4 9,9 12,0 3 1 18 10 SSE 1025,1 54 5 0,0
17.01.2020 16:00:00 14,2 9,2 16,2 9,8 12,0 13 7 22 12 SE 1025,1 47 47 0,0
17.01.2020 15:00:00 14,7 9,7 15,7 9,8 12,0 14 7 21 12 SE 1025,4 59 42 0,0
17.01.2020 14:00:00 14,2 9,2 15,6 9,8 12,0 13 7 22 12 SE 1025,7 49 39 0,0
17.01.2020 13:00:00 15,2 9,5 21,6 9,7 12,0 13 7 22 12 SE 1026,3 60 60 0,0
17.01.2020 12:00:00 15,3 9,2 19,5 9,7 12,0 13 7 19 10 ESE 1026,9 54 60 0,0
17.01.2020 11:00:00 13,9 6,3 16,2 9,8 12,0 10 5 21 11 SSW 1027,5 50 60 0,0
17.01.2020 10:00:00 11,9 5,3 9,4 9,8 12,0 13 7 24 13 SW 1027,6 60 23 0,0
17.01.2020 09:00:00 9,3 4,3 8,0 9,8 12,0 17 9 25 14 SW 1027,6 60 11 0,0
17.01.2020 08:00:00 8,8 4,4 8,0 9,8 12,0 14 8 22 12 SW 1027,5 60 0 0,0
17.01.2020 07:00:00 9,2 4,4 7,5 9,7 12,0 13 7 22 12 SW 1027,5 60 0 0,0
17.01.2020 06:00:00 9,0 4,6 6,8 9,7 12,0 15 8 26 14 SW 1027,4 60 0 0,0
17.01.2020 05:00:00 9,3 4,9 7,7 9,7 12,0 10 5 15 8 SW 1027,6 60 0 0,0
17.01.2020 04:00:00 10,1 5,3 9,2 9,7 12,0 9 5 15 8 SW 1028,0 60 0 0,0
17.01.2020 03:00:00 10,1 5,1 8,1 9,7 12,0 8 5 13 7 SW 1028,4 60 0 0,0
17.01.2020 02:00:00 10,1 5,5 9,0 9,7 12,0 11 6 16 8 SSW 1028,4 60 0 0,0
17.01.2020 01:00:00 10,4 5,6 8,8 9,7 12,0 7 4 18 10 SW 1028,7 60 0 0,0
17.01.2020 00:00:00 10,1 5,7 9,0 9,7 12,0 6 3 14 8 SW 1029,0 59 0 0,0
16.01.2020 23:00:00 9,8 5,6 7,9 9,7 12,0 8 4 13 7 SW 1029,3 58 0 0,0
16.01.2020 22:00:00 9,2 5,7 4,8 9,7 12,0 8 4 10 5 WSW 1029,6 14 0 0,0
16.01.2020 21:00:00 8,3 5,6 4,4 9,6 12,0 6 4 9 5 SSW 1029,7 35 0 0,0
16.01.2020 20:00:00 8,9 6,7 6,9 9,5 12,0 5 3 9 5 SSW 1029,8 23 0 0,0
16.01.2020 19:00:00 9,7 6,8 7,8 9,5 12,0 3 1 8 4 SW 1030,0 23 0 0,0
16.01.2020 18:00:00 10,7 6,8 8,8 9,5 12,0 6 3 8 4 SW 1029,7 13 0 0,0
16.01.2020 17:00:00 11,7 6,8 10,1 9,5 12,1 3 2 7 4 WSW 1029,5 28 0 0,0
16.01.2020 16:00:00 12,3 6,6 12,3 9,4 12,0 5 3 8 5 S 1029,5 53 0 0,0
16.01.2020 15:00:00 12,7 6,1 13,6 9,4 12,0 6 3 9 5 SSW 1029,5 58 0 0,0
16.01.2020 14:00:00 12,6 6,2 13,2 9,4 12,1 4 2 11 6 SW 1029,9 51 0 0,0
16.01.2020 13:00:00 11,6 5,7 11,3 9,4 12,1 4 2 8 5 S 1030,5 40 0 0,0
16.01.2020 12:00:00 10,1 4,2 10,4 9,4 12,1 8 4 13 7 SW 1031,0 60 0 0,0
16.01.2020 11:00:00 9,5 4,3 9,7 9,4 12,0 7 4 14 7 SW 1031,4 59 0 0,0
16.01.2020 10:00:00 9,0 3,6 8,7 9,5 12,1 10 5 18 10 SSW 1031,3 60 1 0,0
16.01.2020 09:00:00 7,9 3,2 5,1 9,5 12,1 13 7 19 10 SSW 1030,8 45 45 0,0
16.01.2020 08:00:00 6,7 2,4 4,3 9,5 12,1 14 8 26 14 SSW 1030,4 60 0 0,0
16.01.2020 07:00:00 6,1 2,4 4,4 9,5 12,1 11 6 22 12 SSW 1030,2 60 0 0,0
16.01.2020 06:00:00 6,8 2,7 4,8 9,6 12,1 16 8 22 12 SW 1029,8 60 0 0,0
16.01.2020 05:00:00 6,5 2,9 4,8 9,6 12,1 13 7 20 11 SSW 1029,6 60 0 0,0
16.01.2020 04:00:00 7,0 3,1 5,5 9,6 12,1 11 6 24 13 SW 1029,7 60 0 0,0
16.01.2020 03:00:00 7,1 3,3 3,5 9,6 12,1 13 7 22 12 SW 1029,9 60 0 0,0
16.01.2020 02:00:00 6,1 3,6 3,8 9,6 12,1 9 5 17 9 SW 1029,7 60 0 0,0
16.01.2020 01:00:00 7,1 3,9 5,2 9,7 12,1 11 6 17 9 SW 1030,0 60 0 0,0
16.01.2020 00:00:00 7,5 4,8 3,3 9,7 12,1 11 6 16 9 SW 1030,2 60 0 0,0
15.01.2020 23:00:00 6,2 4,2 3,3 9,7 12,1 9 5 13 7 SW 1030,0 59 0 0,0
15.01.2020 22:00:00 6,8 4,8 -0,5 9,7 12,1 9 5 12 6 SW 1029,7 44 0 0,0
15.01.2020 21:00:00 6,8 4,6 1,1 9,6 12,1 6 3 11 6 SW 1029,5 32 0 0,0
15.01.2020 20:00:00 6,8 4,9 3,1 9,6 12,1 8 4 11 6 SW 1029,6 27 0 0,0
15.01.2020 19:00:00 7,7 5,7 2,5 9,5 12,1 8 5 10 5 WSW 1029,6 15 0 0,0
15.01.2020 18:00:00 9,8 6,7 2,9 9,5 12,1 3 2 8 4 WNW 1029,2 11 0 0,0
15.01.2020 17:00:00 11,3 6,4 6,5 9,4 12,1 4 2 24 13 SSE 1028,5 56 26 0,0
15.01.2020 16:00:00 13,5 6,8 15,7 9,4 12,1 16 9 29 16 SE 1028,2 38 60 0,0
15.01.2020 15:00:00 14,5 7,3 18,3 9,4 12,1 16 9 27 15 SE 1028,1 60 60 0,0
15.01.2020 14:00:00 14,7 7,0 19,2 9,4 12,1 17 9 27 15 SE 1028,0 60 60 0,0
15.01.2020 13:00:00 14,8 6,9 20,2 9,4 12,2 15 8 25 13 SE 1028,4 40 60 0,0
15.01.2020 12:00:00 14,9 7,0 19,1 9,4 12,1 5 3 14 8 ESE 1028,9 17 60 0,0
15.01.2020 11:00:00 12,5 3,7 15,0 9,4 12,2 8 5 21 12 SSW 1029,3 47 60 0,0
15.01.2020 10:00:00 10,8 2,4 10,3 9,4 12,1 13 7 25 14 SW 1029,1 56 60 0,0
15.01.2020 09:00:00 8,2 1,8 4,2 9,5 12,2 13 7 23 13 SW 1028,5 46 47 0,0
15.01.2020 08:00:00 5,7 1,6 4,0 9,5 12,2 12 6 19 10 SSW 1028,4 60 0 0,0
15.01.2020 07:00:00 6,3 1,6 4,7 9,6 12,2 14 8 21 11 SW 1028,4 60 0 0,0
15.01.2020 06:00:00 6,6 1,7 4,8 9,6 12,2 14 8 26 14 SW 1028,1 60 0 0,0
15.01.2020 05:00:00 6,0 1,5 4,8 9,6 12,2 13 7 21 11 SW 1027,8 60 0 0,0
15.01.2020 04:00:00 6,4 1,7 5,1 9,6 12,2 15 8 24 13 SW 1027,9 60 0 0,0
15.01.2020 03:00:00 7,5 2,2 4,3 9,7 12,2 17 9 29 16 SW 1028,2 60 0 0,0
15.01.2020 02:00:00 6,5 2,4 1,7 9,7 12,2 12 6 19 10 SW 1028,1 60 0 0,0
15.01.2020 01:00:00 7,8 3,1 5,2 9,7 12,2 13 7 20 11 SW 1028,1 60 0 0,0
15.01.2020 00:00:00 8,0 3,3 2,1 9,7 12,2 12 6 22 12 SW 1028,1 60 0 0,0
14.01.2020 23:00:00 6,8 3,6 -1,3 9,7 12,2 8 4 12 6 SW 1028,1 59 0 0,0
14.01.2020 22:00:00 6,5 3,5 -0,3 9,7 12,2 4 2 13 7 SW 1027,8 38 0 0,0
14.01.2020 21:00:00 6,5 3,8 -1,0 9,7 12,2 11 6 14 8 SSW 1027,7 60 0 0,0
14.01.2020 20:00:00 5,9 3,9 0,0 9,7 12,2 5 3 9 5 SSW 1027,5 37 0 0,0
14.01.2020 19:00:00 6,9 4,4 3,5 9,6 12,2 8 4 11 6 SW 1027,4 22 0 0,0
14.01.2020 18:00:00 8,1 5,0 3,3 9,5 12,2 8 4 9 5 SW 1027,1 20 0 0,0
14.01.2020 17:00:00 11,2 6,3 5,6 9,5 12,2 4 2 13 7 SSW 1026,5 35 15 0,0
14.01.2020 16:00:00 13,5 6,6 16,5 9,5 12,2 10 5 17 9 SE 1026,1 56 60 0,0
14.01.2020 15:00:00 14,2 6,0 19,3 9,4 12,2 9 5 16 9 ESE 1025,9 55 60 0,0
14.01.2020 14:00:00 14,5 6,6 21,2 9,4 12,2 10 5 24 13 E 1025,6 54 60 0,0
14.01.2020 13:00:00 15,2 5,7 21,6 9,5 12,2 5 3 16 9 SE 1025,7 20 60 0,0
14.01.2020 12:00:00 14,5 3,3 17,1 9,5 12,2 7 4 22 12 SSW 1026,1 58 60 0,0
14.01.2020 11:00:00 12,4 1,7 14,3 9,5 12,2 14 8 22 12 SW 1026,4 60 60 0,0
14.01.2020 10:00:00 10,5 1,8 9,8 9,5 12,2 14 7 29 16 SW 1026,3 60 60 0,0
14.01.2020 09:00:00 8,1 1,7 7,3 9,6 12,2 19 10 31 17 SW 1025,9 60 46 0,0
14.01.2020 08:00:00 8,0 1,8 4,9 9,6 12,2 19 11 31 17 SW 1025,4 60 0 0,0
14.01.2020 07:00:00 6,2 1,5 4,9 9,6 12,2 16 9 26 14 SW 1025,3 60 0 0,0
14.01.2020 06:00:00 6,5 1,6 4,7 9,6 12,2 17 9 28 15 SW 1024,9 60 0 0,0
14.01.2020 05:00:00 6,5 2,0 5,1 9,7 12,2 16 9 26 14 SW 1024,7 60 0 0,0
14.01.2020 04:00:00 6,7 2,2 5,2 9,7 12,2 16 9 25 14 SW 1024,6 60 0 0,0
14.01.2020 03:00:00 6,8 2,3 4,6 9,7 12,2 14 8 21 11 SW 1025,1 60 0 0,0
14.01.2020 02:00:00 6,5 2,2 4,9 9,7 12,2 14 8 25 14 SSW 1025,2 60 0 0,0
14.01.2020 01:00:00 7,0 2,3 5,2 9,7 12,2 12 6 19 10 SW 1024,8 60 0 0,0
14.01.2020 00:00:00 8,0 2,4 4,7 9,7 12,2 14 7 21 12 SW 1025,0 60 0 0,0
13.01.2020 23:00:00 7,0 2,3 4,8 9,7 12,2 9 5 21 11 SSW 1025,1 60 0 0,0
13.01.2020 22:00:00 8,1 3,4 5,4 9,7 12,2 13 7 19 10 WSW 1025,0 60 0 0,0
13.01.2020 21:00:00 8,7 4,5 1,6 9,7 12,3 13 7 19 11 SW 1025,2 51 0 0,0
13.01.2020 20:00:00 6,1 4,3 2,2 9,7 12,3 7 4 11 6 SW 1025,0 23 0 0,0
13.01.2020 19:00:00 7,0 5,0 1,7 9,6 12,2 8 4 10 5 SW 1025,0 17 0 0,0
13.01.2020 18:00:00 8,0 5,6 2,7 9,6 12,3 6 3 9 5 WSW 1024,8 17 0 0,0
13.01.2020 17:00:00 11,0 5,9 7,3 9,5 12,3 4 2 9 5 S 1024,7 44 46 0,0
13.01.2020 16:00:00 13,0 6,1 15,6 9,5 12,2 8 4 14 8 SE 1024,6 58 60 0,0
13.01.2020 15:00:00 13,6 6,2 13,5 9,5 12,3 10 5 17 9 ESE 1024,8 60 47 0,0
13.01.2020 14:00:00 13,2 5,8 14,3 9,5 12,3 10 5 17 9 ESE 1024,9 56 46 0,0
13.01.2020 13:00:00 13,9 4,7 20,7 9,5 12,3 9 5 14 8 E 1025,5 58 60 0,0
13.01.2020 12:00:00 13,5 3,8 17,9 9,6 12,3 5 3 13 7 SSW 1026,4 55 60 0,0
13.01.2020 11:00:00 11,7 1,6 13,6 9,6 12,3 10 5 23 13 SW 1026,7 53 60 0,0
13.01.2020 10:00:00 9,9 -0,6 9,1 9,7 12,3 16 9 30 16 SW 1026,4 60 60 0,0
13.01.2020 09:00:00 7,1 -0,9 4,4 9,7 12,3 19 10 29 16 SW 1026,2 59 46 0,0
13.01.2020 08:00:00 5,8 -0,7 4,2 9,7 12,3 19 10 29 15 SW 1026,1 60 0 0,0
13.01.2020 07:00:00 5,7 -0,4 3,6 9,8 12,3 17 9 27 14 SW 1026,0 60 0 0,0
13.01.2020 06:00:00 5,1 0,1 2,9 9,8 12,3 13 7 20 11 SW 1025,7 60 0 0,0
13.01.2020 05:00:00 4,6 0,4 2,9 9,9 12,3 11 6 22 12 SW 1025,8 60 0 0,0
13.01.2020 04:00:00 5,4 0,9 4,0 9,9 12,3 16 9 31 17 SW 1026,0 60 0 0,0
13.01.2020 03:00:00 5,8 1,3 4,4 9,9 12,3 16 9 25 13 SW 1026,1 60 0 0,0
13.01.2020 02:00:00 6,0 1,9 4,3 9,9 12,3 15 8 22 12 SW 1026,3 60 0 0,0
13.01.2020 01:00:00 6,0 2,5 1,5 9,9 12,3 13 7 17 9 SW 1026,3 59 0 0,0
13.01.2020 00:00:00 6,0 2,5 3,6 10,0 12,3 10 6 19 10 SW 1026,8 60 0 0,0
12.01.2020 23:00:00 6,6 3,2 4,6 10,0 12,3 13 7 23 12 SSW 1026,7 59 0 0,0
12.01.2020 22:00:00 7,1 3,9 2,0 10,0 12,3 14 8 20 11 SW 1026,5 54 0 0,0
12.01.2020 21:00:00 5,5 3,5 1,8 10,0 12,3 9 5 12 7 SW 1026,7 35 0 0,0
12.01.2020 20:00:00 6,3 4,5 -0,1 9,9 12,3 8 4 11 6 SW 1026,7 22 0 0,0
12.01.2020 19:00:00 6,9 5,2 2,3 9,9 12,3 9 5 13 7 SW 1026,5 20 0 0,0
12.01.2020 18:00:00 7,4 5,4 1,7 9,8 12,3 8 5 11 6 SW 1026,3 9 0 0,0
12.01.2020 17:00:00 11,3 6,6 6,2 9,8 12,3 5 3 14 7 WNW 1026,3 52 41 0,0
12.01.2020 16:00:00 13,0 7,0 16,4 9,7 12,3 9 5 16 9 NNW 1026,1 45 60 0,0
12.01.2020 15:00:00 13,6 6,7 18,3 9,7 12,3 12 6 22 12 N 1026,1 60 60 0,0
12.01.2020 14:00:00 14,0 6,4 20,3 9,7 12,3 12 6 18 10 N 1026,3 55 60 0,0

tt = Température de l'air
td = dewpoint
tt 5cm = Température de l'air 5cm
tt -20cm = Température de l'air -20cm
tt -100cm = Température de l'air -100cm
ff = Vitesse du vent
fx = gusts
dd = Direction du vent
ppp = reduced air pressure
vv = visibility
sd = Ensoleillement
rr = Quantités de précipitations

stations d'obs. à proximité